Saint Bonnet de Bellac- Haute Vienne - France
Donnes mto: mercredi, 04/04/2012
Date Horaire Temp. E. Hum. E. P.atmo. Pluie Vent Direction Direction Ensoleilleme Solaire P. de rose Temp au vent Rafales
04/04/2012 00:00 7,4 C 79 % 1006,8 hPa 0,0 mm 5,0 km/h (1 Bft) S-SO 202 0 min 0 W/m 4,0 C 6,8 C 7,6 km/h (2 Bft)
04/04/2012 00:10 7,4 C 79 % 1006,9 hPa 0,0 mm 6,5 km/h (2 Bft) SO 225 0 min 0 W/m 4,0 C 6,3 C 10,8 km/h (2 Bft)
04/04/2012 00:20 7,4 C 80 % 1007,0 hPa 0,0 mm 3,6 km/h (1 Bft) SO 225 0 min 0 W/m 4,2 C 7,4 C 6,8 km/h (2 Bft)
04/04/2012 00:30 7,2 C 80 % 1006,9 hPa 0,0 mm 3,2 km/h (1 Bft) SO 225 0 min 0 W/m 4,0 C 7,2 C 4,0 km/h (1 Bft)
04/04/2012 00:40 7,1 C 80 % 1006,9 hPa 0,0 mm 4,3 km/h (1 Bft) SO 225 0 min 0 W/m 3,9 C 7,1 C 9,0 km/h (2 Bft)
04/04/2012 00:50 6,9 C 81 % 1007,0 hPa 0,0 mm 3,6 km/h (1 Bft) SO 225 0 min 0 W/m 3,9 C 6,9 C 4,3 km/h (1 Bft)
04/04/2012 01:00 6,8 C 82 % 1006,9 hPa 0,0 mm 1,4 km/h (1 Bft) SO 225 0 min 0 W/m 3,9 C 6,8 C 4,0 km/h (1 Bft)
04/04/2012 01:10 6,6 C 83 % 1006,8 hPa 0,0 mm 2,5 km/h (1 Bft) SO 225 0 min 0 W/m 3,9 C 6,6 C 4,0 km/h (1 Bft)
04/04/2012 01:20 6,4 C 83 % 1006,8 hPa 0,0 mm 0,4 km/h (0 Bft) SO 225 0 min 0 W/m 3,7 C 6,4 C 1,8 km/h (1 Bft)
04/04/2012 01:30 6,2 C 84 % 1006,8 hPa 0,0 mm 3,2 km/h (1 Bft) S-SO 202 0 min 0 W/m 3,7 C 6,2 C 4,3 km/h (1 Bft)
04/04/2012 01:40 5,9 C 84 % 1006,9 hPa 0,0 mm 3,6 km/h (1 Bft) SO 225 0 min 0 W/m 3,4 C 5,9 C 6,1 km/h (2 Bft)
04/04/2012 01:50 5,7 C 85 % 1006,9 hPa 0,0 mm 3,2 km/h (1 Bft) O-SO 247 0 min 0 W/m 3,4 C 5,7 C 3,6 km/h (1 Bft)
04/04/2012 02:00 5,5 C 86 % 1007,0 hPa 0,0 mm 5,0 km/h (1 Bft) SO 225 0 min 0 W/m 3,3 C 4,7 C 9,4 km/h (2 Bft)
04/04/2012 02:10 5,4 C 86 % 1006,9 hPa 0,0 mm 2,5 km/h (1 Bft) SO 225 0 min 0 W/m 3,3 C 5,4 C 4,3 km/h (1 Bft)
04/04/2012 02:20 5,3 C 87 % 1006,9 hPa 0,0 mm 3,2 km/h (1 Bft) SO 225 0 min 0 W/m 3,3 C 5,3 C 4,3 km/h (1 Bft)
04/04/2012 02:30 5,2 C 87 % 1007,0 hPa 0,0 mm 3,2 km/h (1 Bft) SO 225 0 min 0 W/m 3,2 C 5,2 C 4,7 km/h (1 Bft)
04/04/2012 02:40 5,1 C 87 % 1006,9 hPa 0,0 mm 2,2 km/h (1 Bft) SO 225 0 min 0 W/m 3,1 C 5,1 C 3,2 km/h (1 Bft)
04/04/2012 02:50 5,1 C 88 % 1006,9 hPa 0,0 mm 3,6 km/h (1 Bft) SO 225 0 min 0 W/m 3,3 C 5,1 C 4,3 km/h (1 Bft)
04/04/2012 03:02 5,2 C 88 % 1006,9 hPa 0,0 mm 2,5 km/h (1 Bft) SO 225 0 min 0 W/m 3,4 C 5,2 C 4,0 km/h (1 Bft)
04/04/2012 03:10 5,3 C 88 % 1006,9 hPa 0,0 mm 4,7 km/h (1 Bft) S 180 0 min 0 W/m 3,5 C 4,5 C 8,6 km/h (2 Bft)
04/04/2012 03:20 5,3 C 88 % 1006,8 hPa 0,0 mm 4,7 km/h (1 Bft) SO 225 0 min 0 W/m 3,5 C 4,5 C 4,7 km/h (1 Bft)
04/04/2012 03:30 5,2 C 88 % 1006,7 hPa 0,0 mm 4,7 km/h (1 Bft) SO 225 0 min 0 W/m 3,4 C 4,4 C 7,2 km/h (2 Bft)
04/04/2012 03:40 5,2 C 88 % 1006,8 hPa 0,0 mm 5,0 km/h (1 Bft) S-SO 202 0 min 0 W/m 3,4 C 4,3 C 5,0 km/h (1 Bft)
04/04/2012 03:50 5,1 C 88 % 1006,7 hPa 0,0 mm 4,3 km/h (1 Bft) SO 225 0 min 0 W/m 3,3 C 5,1 C 6,8 km/h (2 Bft)
04/04/2012 04:00 5,0 C 88 % 1006,6 hPa 0,0 mm 5,8 km/h (2 Bft) S-SO 202 0 min 0 W/m 3,2 C 3,8 C 8,6 km/h (2 Bft)
04/04/2012 04:10 5,0 C 89 % 1006,7 hPa 0,0 mm 4,0 km/h (1 Bft) O-SO 247 0 min 0 W/m 3,3 C 5,0 C 8,6 km/h (2 Bft)
04/04/2012 04:20 4,9 C 89 % 1006,6 hPa 0,0 mm 5,4 km/h (2 Bft) SO 225 0 min 0 W/m 3,2 C 3,8 C 6,8 km/h (2 Bft)
04/04/2012 04:30 4,9 C 88 % 1006,6 hPa 0,0 mm 2,9 km/h (1 Bft) SO 225 0 min 0 W/m 3,1 C 4,9 C 7,6 km/h (2 Bft)
04/04/2012 04:40 4,8 C 88 % 1006,5 hPa 0,0 mm 1,8 km/h (1 Bft) SO 225 0 min 0 W/m 3,0 C 4,8 C 4,0 km/h (1 Bft)
04/04/2012 04:50 4,6 C 88 % 1006,5 hPa 0,0 mm 3,2 km/h (1 Bft) S-SO 202 0 min 0 W/m 2,8 C 4,6 C 6,1 km/h (2 Bft)
04/04/2012 05:00 4,5 C 88 % 1006,5 hPa 0,0 mm 0,0 km/h (0 Bft) SO 225 0 min 0 W/m 2,7 C 4,5 C 0,0 km/h (0 Bft)
04/04/2012 05:10 4,4 C 88 % 1006,6 hPa 0,0 mm 0,4 km/h (0 Bft) S 180 0 min 0 W/m 2,6 C 4,4 C 0,4 km/h (0 Bft)
04/04/2012 05:20 4,4 C 90 % 1006,5 hPa 0,0 mm 1,1 km/h (1 Bft) SO 225 0 min 0 W/m 2,9 C 4,4 C 4,0 km/h (1 Bft)
04/04/2012 05:30 4,5 C 90 % 1006,5 hPa 0,0 mm 1,1 km/h (1 Bft) SO 225 0 min 0 W/m 3,0 C 4,5 C 4,0 km/h (1 Bft)
04/04/2012 05:40 4,5 C 90 % 1006,4 hPa 0,0 mm 2,9 km/h (1 Bft) S-SO 202 0 min 0 W/m 3,0 C 4,5 C 8,6 km/h (2 Bft)
04/04/2012 05:50 4,6 C 90 % 1006,4 hPa 0,0 mm 1,1 km/h (1 Bft) SO 225 0 min 0 W/m 3,1 C 4,6 C 4,0 km/h (1 Bft)
04/04/2012 06:00 4,6 C 90 % 1006,3 hPa 0,0 mm 0,7 km/h (0 Bft) SO 225 0 min 0 W/m 3,1 C 4,6 C 4,0 km/h (1 Bft)
04/04/2012 06:10 4,6 C 90 % 1006,3 hPa 0,0 mm 0,4 km/h (0 Bft) SO 225 0 min 0 W/m 3,1 C 4,6 C 0,4 km/h (0 Bft)
04/04/2012 06:20 4,8 C 91 % 1006,3 hPa 0,0 mm 3,6 km/h (1 Bft) S-SO 202 0 min 0 W/m 3,5 C 4,8 C 4,3 km/h (1 Bft)
04/04/2012 06:30 5,1 C 91 % 1006,4 hPa 0,0 mm 3,2 km/h (1 Bft) S-SO 202 0 min 0 W/m 3,8 C 5,1 C 7,2 km/h (2 Bft)
04/04/2012 06:40 5,4 C 91 % 1006,5 hPa 0,0 mm 2,2 km/h (1 Bft) S-SO 202 0 min 0 W/m 4,1 C 5,4 C 3,6 km/h (1 Bft)
04/04/2012 06:50 5,6 C 91 % 1006,5 hPa 0,0 mm 1,8 km/h (1 Bft) S-SO 202 0 min 0 W/m 4,2 C 5,6 C 4,0 km/h (1 Bft)
04/04/2012 07:00 5,8 C 90 % 1006,6 hPa 0,0 mm 1,4 km/h (1 Bft) S 180 0 min 0 W/m 4,3 C 5,8 C 1,4 km/h (1 Bft)
04/04/2012 07:10 5,8 C 90 % 1006,6 hPa 0,0 mm 0,0 km/h (0 Bft) S 180 0 min 0 W/m 4,3 C 5,8 C 2,9 km/h (1 Bft)
04/04/2012 07:20 5,9 C 90 % 1006,6 hPa 0,0 mm 0,0 km/h (0 Bft) SO 225 0 min 0 W/m 4,4 C 5,9 C 0,0 km/h (0 Bft)
04/04/2012 07:30 5,9 C 90 % 1006,6 hPa 0,0 mm 1,4 km/h (1 Bft) SO 225 0 min 0 W/m 4,4 C 5,9 C 3,2 km/h (1 Bft)
04/04/2012 07:40 6,1 C 89 % 1006,7 hPa 0,0 mm 1,8 km/h (1 Bft) S 180 2 min 0 W/m 4,4 C 6,1 C 4,0 km/h (1 Bft)
04/04/2012 07:50 6,2 C 89 % 1006,8 hPa 0,0 mm 1,4 km/h (1 Bft) S-SO 202 2 min 0 W/m 4,5 C 6,2 C 4,0 km/h (1 Bft)
04/04/2012 08:00 6,3 C 89 % 1006,8 hPa 0,0 mm 2,2 km/h (1 Bft) S-SE 157 2 min 0 W/m 4,6 C 6,3 C 7,9 km/h (2 Bft)
04/04/2012 08:10 6,3 C 89 % 1006,8 hPa 0,0 mm 0,0 km/h (0 Bft) SO 225 2 min 0 W/m 4,6 C 6,3 C 3,2 km/h (1 Bft)
04/04/2012 08:20 6,4 C 89 % 1006,9 hPa 0,0 mm 4,0 km/h (1 Bft) S-SO 202 2 min 0 W/m 4,7 C 6,4 C 4,3 km/h (1 Bft)
04/04/2012 08:30 6,5 C 89 % 1007,0 hPa 0,0 mm 2,9 km/h (1 Bft) S-SO 202 2 min 0 W/m 4,8 C 6,5 C 3,6 km/h (1 Bft)
04/04/2012 08:40 6,6 C 89 % 1007,0 hPa 0,0 mm 2,5 km/h (1 Bft) SO 225 2 min 0 W/m 4,9 C 6,6 C 6,1 km/h (2 Bft)
04/04/2012 08:50 6,8 C 89 % 1007,1 hPa 0,0 mm 2,9 km/h (1 Bft) S-SO 202 2 min 0 W/m 5,1 C 6,8 C 4,3 km/h (1 Bft)
04/04/2012 09:00 7,1 C 89 % 1007,1 hPa 0,0 mm 3,6 km/h (1 Bft) S 180 2 min 0 W/m 5,4 C 7,1 C 4,3 km/h (1 Bft)
04/04/2012 09:10 7,2 C 89 % 1007,3 hPa 0,0 mm 3,6 km/h (1 Bft) S-SO 202 2 min 0 W/m 5,5 C 7,2 C 4,0 km/h (1 Bft)
04/04/2012 09:20 7,4 C 89 % 1007,4 hPa 0,0 mm 2,9 km/h (1 Bft) S 180 2 min 0 W/m 5,7 C 7,4 C 4,3 km/h (1 Bft)
04/04/2012 09:30 7,5 C 89 % 1007,4 hPa 0,0 mm 0,0 km/h (0 Bft) S-SO 202 2 min 0 W/m 5,8 C 7,5 C 4,0 km/h (1 Bft)
04/04/2012 09:40 7,7 C 88 % 1007,5 hPa 0,0 mm 3,6 km/h (1 Bft) S-SO 202 2 min 0 W/m 5,8 C 7,7 C 6,8 km/h (2 Bft)
04/04/2012 09:50 7,8 C 87 % 1007,6 hPa 0,0 mm 5,8 km/h (2 Bft) SO 225 2 min 0 W/m 5,8 C 7,0 C 8,6 km/h (2 Bft)
04/04/2012 10:00 7,9 C 87 % 1007,6 hPa 0,0 mm 4,7 km/h (1 Bft) S-SO 202 2 min 0 W/m 5,9 C 7,5 C 7,6 km/h (2 Bft)
04/04/2012 10:10 8,1 C 87 % 1007,7 hPa 0,0 mm 3,2 km/h (1 Bft) S-SO 202 2 min 0 W/m 6,1 C 8,1 C 9,0 km/h (2 Bft)
04/04/2012 10:20 8,4 C 86 % 1007,8 hPa 0,0 mm 1,1 km/h (1 Bft) SE 135 2 min 0 W/m 6,2 C 8,4 C 4,0 km/h (1 Bft)
04/04/2012 10:30 8,8 C 85 % 1007,8 hPa 0,0 mm 5,0 km/h (1 Bft) S-SE 157 2 min 0 W/m 6,4 C 8,4 C 8,3 km/h (2 Bft)
04/04/2012 10:40 8,9 C 84 % 1008,0 hPa 0,0 mm 0,0 km/h (0 Bft) S-SO 202 2 min 0 W/m 6,3 C 8,9 C 0,0 km/h (0 Bft)
04/04/2012 10:50 9,1 C 83 % 1008,1 hPa 0,0 mm 0,4 km/h (0 Bft) S-SO 202 2 min 0 W/m 6,4 C 9,1 C 0,4 km/h (0 Bft)
04/04/2012 11:00 9,2 C 83 % 1008,2 hPa 0,0 mm 0,0 km/h (0 Bft) O 270 2 min 0 W/m 6,5 C 9,2 C 3,6 km/h (1 Bft)
04/04/2012 11:10 9,4 C 83 % 1008,2 hPa 0,0 mm 1,8 km/h (1 Bft) SO 225 2 min 0 W/m 6,7 C 9,4 C 4,3 km/h (1 Bft)
04/04/2012 11:20 9,6 C 82 % 1008,2 hPa 0,0 mm 0,7 km/h (0 Bft) O-SO 247 2 min 0 W/m 6,7 C 9,6 C 4,0 km/h (1 Bft)
04/04/2012 11:30 9,9 C 81 % 1008,3 hPa 0,0 mm 2,5 km/h (1 Bft) SO 225 2 min 0 W/m 6,8 C 9,9 C 4,7 km/h (1 Bft)
04/04/2012 11:40 10,2 C 78 % 1008,3 hPa 0,0 mm 3,2 km/h (1 Bft) SO 225 2 min 0 W/m 6,5 C 10,2 C 3,6 km/h (1 Bft)
04/04/2012 11:50 10,4 C 77 % 1008,3 hPa 0,0 mm 5,8 km/h (2 Bft) SO 225 2 min 0 W/m 6,5 C 10,4 C 9,4 km/h (2 Bft)
04/04/2012 12:00 10,4 C 76 % 1008,3 hPa 0,0 mm 2,9 km/h (1 Bft) SO 225 2 min 0 W/m 6,4 C 10,4 C 3,2 km/h (1 Bft)
04/04/2012 12:10 10,5 C 76 % 1008,3 hPa 0,0 mm 5,8 km/h (2 Bft) S-SO 202 2 min 0 W/m 6,5 C 10,5 C 9,0 km/h (2 Bft)
04/04/2012 12:20 10,6 C 74 % 1008,2 hPa 0,0 mm 5,0 km/h (1 Bft) S 180 2 min 0 W/m 6,2 C 10,6 C 8,6 km/h (2 Bft)
04/04/2012 12:30 10,9 C 71 % 1008,2 hPa 0,0 mm 6,8 km/h (2 Bft) S-SO 202 2 min 0 W/m 5,9 C 10,9 C 9,4 km/h (2 Bft)
04/04/2012 12:40 11,1 C 72 % 1008,1 hPa 0,0 mm 5,4 km/h (2 Bft) SO 225 2 min 0 W/m 6,2 C 11,1 C 8,3 km/h (2 Bft)
04/04/2012 12:50 11,3 C 70 % 1008,1 hPa 0,0 mm 1,4 km/h (1 Bft) SO 225 2 min 0 W/m 6,0 C 11,3 C 1,8 km/h (1 Bft)
04/04/2012 13:00 11,3 C 68 % 1008,1 hPa 0,0 mm 5,0 km/h (1 Bft) S 180 2 min 0 W/m 5,6 C 11,3 C 7,2 km/h (2 Bft)
04/04/2012 13:10 11,6 C 66 % 1008,0 hPa 0,0 mm 1,8 km/h (1 Bft) S-SO 202 2 min 0 W/m 5,5 C 11,6 C 4,0 km/h (1 Bft)
04/04/2012 13:20 12,0 C 66 % 1007,9 hPa 0,0 mm 2,5 km/h (1 Bft) O-SO 247 2 min 0 W/m 5,8 C 12,0 C 4,3 km/h (1 Bft)
04/04/2012 13:30 12,1 C 64 % 1007,8 hPa 0,0 mm 0,7 km/h (0 Bft) O-SO 247 2 min 0 W/m 5,5 C 12,1 C 3,6 km/h (1 Bft)
04/04/2012 13:40 12,5 C 64 % 1007,8 hPa 0,0 mm 4,0 km/h (1 Bft) S-SO 202 2 min 0 W/m 5,9 C 12,5 C 8,6 km/h (2 Bft)
04/04/2012 13:50 13,1 C 60 % 1007,8 hPa 0,0 mm 1,4 km/h (1 Bft) SO 225 2 min 0 W/m 5,5 C 13,1 C 1,4 km/h (1 Bft)
04/04/2012 14:00 13,5 C 54 % 1007,9 hPa 0,0 mm 9,4 km/h (2 Bft) SO 225 2 min 0 W/m 4,4 C 13,5 C 13,0 km/h (3 Bft)
04/04/2012 14:10 13,5 C 55 % 1007,8 hPa 0,0 mm 6,5 km/h (2 Bft) O-SO 247 2 min 0 W/m 4,6 C 13,5 C 10,1 km/h (2 Bft)
04/04/2012 14:20 13,8 C 58 % 1007,8 hPa 0,0 mm 4,7 km/h (1 Bft) O-SO 247 2 min 0 W/m 5,7 C 13,8 C 4,7 km/h (1 Bft)
04/04/2012 14:30 14,3 C 53 % 1007,7 hPa 0,0 mm 4,3 km/h (1 Bft) O-SO 247 2 min 0 W/m 4,9 C 14,3 C 4,3 km/h (1 Bft)
04/04/2012 14:40 14,4 C 54 % 1007,6 hPa 0,0 mm 3,6 km/h (1 Bft) S 180 2 min 0 W/m 5,2 C 14,4 C 6,8 km/h (2 Bft)
04/04/2012 14:50 14,3 C 53 % 1007,6 hPa 0,0 mm 2,5 km/h (1 Bft) S-SE 157 2 min 0 W/m 4,9 C 14,3 C 3,6 km/h (1 Bft)
04/04/2012 15:00 14,3 C 50 % 1007,5 hPa 0,0 mm 1,8 km/h (1 Bft) SO 225 2 min 0 W/m 4,0 C 14,3 C 4,3 km/h (1 Bft)
04/04/2012 15:10 13,8 C 51 % 1007,4 hPa 0,0 mm 5,4 km/h (2 Bft) SO 225 2 min 0 W/m 3,8 C 13,8 C 6,5 km/h (2 Bft)
04/04/2012 15:20 13,3 C 54 % 1007,4 hPa 0,0 mm 5,4 km/h (2 Bft) S 180 2 min 0 W/m 4,2 C 13,3 C 5,4 km/h (2 Bft)
04/04/2012 15:30 13,3 C 52 % 1007,5 hPa 0,0 mm 3,6 km/h (1 Bft) O-SO 247 2 min 0 W/m 3,7 C 13,3 C 10,1 km/h (2 Bft)
04/04/2012 15:40 13,7 C 49 % 1007,4 hPa 0,0 mm 2,5 km/h (1 Bft) S 180 2 min 0 W/m 3,2 C 13,7 C 6,1 km/h (2 Bft)
04/04/2012 15:50 13,9 C 49 % 1007,4 hPa 0,0 mm 6,8 km/h (2 Bft) S-SO 202 2 min 0 W/m 3,4 C 13,9 C 8,6 km/h (2 Bft)
04/04/2012 16:00 14,1 C 49 % 1007,4 hPa 0,0 mm 2,9 km/h (1 Bft) SO 225 2 min 0 W/m 3,6 C 14,1 C 6,5 km/h (2 Bft)
04/04/2012 16:10 13,9 C 52 % 1007,4 hPa 0,0 mm 3,6 km/h (1 Bft) S-SE 157 2 min 0 W/m 4,2 C 13,9 C 6,8 km/h (2 Bft)
04/04/2012 16:20 13,8 C 51 % 1007,3 hPa 0,0 mm 4,0 km/h (1 Bft) S 180 2 min 0 W/m 3,8 C 13,8 C 6,8 km/h (2 Bft)
04/04/2012 16:30 13,6 C 52 % 1007,3 hPa 0,0 mm 1,4 km/h (1 Bft) S-SO 202 2 min 0 W/m 3,9 C 13,6 C 6,5 km/h (2 Bft)
04/04/2012 16:40 13,4 C 52 % 1007,2 hPa 0,0 mm 5,4 km/h (2 Bft) S 180 2 min 0 W/m 3,7 C 13,4 C 9,7 km/h (2 Bft)
04/04/2012 16:50 13,2 C 52 % 1007,2 hPa 0,0 mm 3,2 km/h (1 Bft) SO 225 2 min 0 W/m 3,6 C 13,2 C 4,3 km/h (1 Bft)
04/04/2012 17:00 12,9 C 52 % 1007,1 hPa 0,0 mm 1,1 km/h (1 Bft) O-SO 247 2 min 0 W/m 3,3 C 12,9 C 4,3 km/h (1 Bft)
04/04/2012 17:10 12,9 C 54 % 1007,2 hPa 0,0 mm 0,4 km/h (0 Bft) O-SO 247 2 min 0 W/m 3,8 C 12,9 C 0,4 km/h (0 Bft)
04/04/2012 17:20 13,0 C 54 % 1007,1 hPa 0,0 mm 1,4 km/h (1 Bft) O-NO 292 2 min 0 W/m 3,9 C 13,0 C 3,2 km/h (1 Bft)
04/04/2012 17:30 13,1 C 54 % 1007,0 hPa 0,0 mm 0,4 km/h (0 Bft) O-SO 247 2 min 0 W/m 4,0 C 13,1 C 3,2 km/h (1 Bft)
04/04/2012 17:40 13,1 C 54 % 1007,1 hPa 0,0 mm 0,0 km/h (0 Bft) S-SO 202 2 min 0 W/m 4,0 C 13,1 C 0,0 km/h (0 Bft)
04/04/2012 17:50 13,1 C 54 % 1007,1 hPa 0,0 mm 0,4 km/h (0 Bft) O 270 2 min 0 W/m 4,0 C 13,1 C 3,6 km/h (1 Bft)
04/04/2012 18:00 13,2 C 53 % 1007,1 hPa 0,0 mm 1,4 km/h (1 Bft) O 270 2 min 0 W/m 3,8 C 13,2 C 2,9 km/h (1 Bft)
04/04/2012 18:10 13,2 C 53 % 1007,1 hPa 0,0 mm 0,0 km/h (0 Bft) O-NO 292 2 min 0 W/m 3,8 C 13,2 C 0,0 km/h (0 Bft)
04/04/2012 18:20 13,1 C 57 % 1007,1 hPa 0,0 mm 1,4 km/h (1 Bft) NO 315 2 min 0 W/m 4,8 C 13,1 C 6,8 km/h (2 Bft)
04/04/2012 18:30 12,8 C 61 % 1007,2 hPa 0,0 mm 3,2 km/h (1 Bft) N-NO 337 2 min 0 W/m 5,5 C 12,8 C 4,3 km/h (1 Bft)
04/04/2012 18:40 12,3 C 63 % 1007,2 hPa 0,0 mm 2,9 km/h (1 Bft) N-NO 337 2 min 0 W/m 5,5 C 12,3 C 6,1 km/h (2 Bft)
04/04/2012 18:50 11,8 C 64 % 1007,3 hPa 0,0 mm 4,3 km/h (1 Bft) N-NO 337 2 min 0 W/m 5,2 C 11,8 C 6,8 km/h (2 Bft)
04/04/2012 19:00 11,4 C 66 % 1007,3 hPa 0,0 mm 3,6 km/h (1 Bft) NO 315 2 min 0 W/m 5,3 C 11,4 C 8,3 km/h (2 Bft)
04/04/2012 19:10 11,1 C 67 % 1007,3 hPa 0,0 mm 3,2 km/h (1 Bft) N 360 2 min 0 W/m 5,2 C 11,1 C 4,0 km/h (1 Bft)
04/04/2012 19:20 10,9 C 68 % 1007,2 hPa 0,0 mm 2,5 km/h (1 Bft) N 360 2 min 0 W/m 5,2 C 10,9 C 2,5 km/h (1 Bft)
04/04/2012 19:30 10,8 C 69 % 1007,2 hPa 0,0 mm 2,2 km/h (1 Bft) N-NE 22 2 min 0 W/m 5,3 C 10,8 C 4,0 km/h (1 Bft)
04/04/2012 19:40 10,6 C 69 % 1007,2 hPa 0,0 mm 2,9 km/h (1 Bft) N-NE 22 2 min 0 W/m 5,2 C 10,6 C 4,3 km/h (1 Bft)
04/04/2012 19:50 10,4 C 69 % 1007,2 hPa 0,0 mm 0,4 km/h (0 Bft) NE 45 2 min 0 W/m 5,0 C 10,4 C 3,6 km/h (1 Bft)
04/04/2012 20:00 10,2 C 70 % 1007,3 hPa 0,0 mm 0,0 km/h (0 Bft) NE 45 2 min 0 W/m 5,0 C 10,2 C 0,0 km/h (0 Bft)
04/04/2012 20:10 10,1 C 70 % 1007,4 hPa 0,0 mm 0,0 km/h (0 Bft) NE 45 2 min 0 W/m 4,9 C 10,1 C 0,0 km/h (0 Bft)
04/04/2012 20:20 9,9 C 71 % 1007,6 hPa 0,0 mm 0,0 km/h (0 Bft) NE 45 0 min 0 W/m 4,9 C 9,9 C 0,0 km/h (0 Bft)
04/04/2012 20:30 9,8 C 71 % 1007,7 hPa 0,0 mm 0,0 km/h (0 Bft) NE 45 0 min 0 W/m 4,8 C 9,8 C 0,0 km/h (0 Bft)
04/04/2012 20:40 9,5 C 71 % 1007,8 hPa 0,0 mm 0,0 km/h (0 Bft) NE 45 0 min 0 W/m 4,5 C 9,5 C 0,0 km/h (0 Bft)
04/04/2012 20:50 9,4 C 72 % 1007,9 hPa 0,0 mm 0,0 km/h (0 Bft) NE 45 0 min 0 W/m 4,6 C 9,4 C 0,0 km/h (0 Bft)
04/04/2012 21:00 9,2 C 72 % 1007,9 hPa 0,0 mm 0,0 km/h (0 Bft) NE 45 0 min 0 W/m 4,4 C 9,2 C 0,0 km/h (0 Bft)
04/04/2012 21:10 9,1 C 72 % 1008,1 hPa 0,0 mm 0,0 km/h (0 Bft) NE 45 0 min 0 W/m 4,3 C 9,1 C 0,0 km/h (0 Bft)
04/04/2012 21:20 8,9 C 73 % 1008,3 hPa 0,0 mm 0,0 km/h (0 Bft) NE 45 0 min 0 W/m 4,3 C 8,9 C 0,0 km/h (0 Bft)
04/04/2012 21:30 8,9 C 73 % 1008,4 hPa 0,0 mm 0,0 km/h (0 Bft) NE 45 0 min 0 W/m 4,3 C 8,9 C 0,0 km/h (0 Bft)
04/04/2012 21:40 8,9 C 74 % 1008,5 hPa 0,0 mm 0,0 km/h (0 Bft) NE 45 0 min 0 W/m 4,5 C 8,9 C 0,0 km/h (0 Bft)
04/04/2012 21:50 8,8 C 74 % 1008,8 hPa 0,0 mm 0,0 km/h (0 Bft) NE 45 0 min 0 W/m 4,4 C 8,8 C 0,0 km/h (0 Bft)
04/04/2012 22:00 8,8 C 74 % 1008,8 hPa 0,0 mm 0,0 km/h (0 Bft) NE 45 0 min 0 W/m 4,4 C 8,8 C 0,0 km/h (0 Bft)
04/04/2012 22:10 8,8 C 76 % 1009,0 hPa 0,0 mm 0,0 km/h (0 Bft) NO 315 0 min 0 W/m 4,8 C 8,8 C 0,0 km/h (0 Bft)
04/04/2012 22:20 8,5 C 76 % 1008,9 hPa 0,0 mm 0,0 km/h (0 Bft) E-NE 67 0 min 0 W/m 4,5 C 8,5 C 0,0 km/h (0 Bft)
04/04/2012 22:30 8,5 C 77 % 1008,8 hPa 0,0 mm 0,0 km/h (0 Bft) NE 45 0 min 0 W/m 4,7 C 8,5 C 0,0 km/h (0 Bft)
04/04/2012 22:40 8,4 C 77 % 1009,0 hPa 0,0 mm 0,0 km/h (0 Bft) NE 45 0 min 0 W/m 4,6 C 8,4 C 0,0 km/h (0 Bft)
04/04/2012 22:50 8,4 C 76 % 1009,0 hPa 0,0 mm 0,0 km/h (0 Bft) NE 45 0 min 0 W/m 4,4 C 8,4 C 0,0 km/h (0 Bft)
_ Min-Heure 05:20 16:00 06:20 - 22:50 - - - - 05:10 04:00 22:50
Minimum _ 4,4 C 49 % 1006,3 hPa - 0,0 km/h (0 Bft) - - - - 2,6 C 3,8 C 0,0 km/h (0 Bft)
_ Max-Heure 14:40 06:50 22:50 22:50 14:00 - - 20:10 22:50 11:30 14:40 14:00
Maximum _ 14,4 C 91 % 1009,0 hPa 0,0 mm 9,4 km/h
SO (2 Bft)
- - 2 min 0 W/m 6,8 C 14,4 C 13,0 km/h
SO (3 Bft)
Moyenne _ 8,9 C 75 % 1007,3 hPa #0,0 mm 2,5 km/h (1 Bft) SO - #2:32 h 0 W/m 4,5 C 8,8 C 4,4 km/h (1 Bft)
Saint Bonnet de Bellac- Haute Vienne - France